[[{"header":{"parameterUnit":"m.s-1","parameterCategory":1,"la1":30.2991,"la2":30.254,"lo1":-89.0895,"lo2":-89.0444,"dy":0.0017,"dx":0.0017,"nx":28,"ny":28,"refTime":"2024-02-06T09:00:00:Z","depth":0,"parameterNumber":2,"parameterNumberName":"U-component_of_WINDS"},"data":[0,0,0,0,0,0,0,0,0,0,0,0,0,0,0,0,0,0,0,0,0,0,0,0,0,0,0,0,0,0,0,0,0,0,0,0,0,0,0,0,0,0,0,0,0,0,0,0,0,0,0,0,0,0,0,0,0,0,-1.4803,-1.4803,0,-1.4829,-1.483,-1.483,-1.4768,-1.4766,-1.4764,-1.4762,-1.4792,-1.4795,-1.4797,0,0,0,0,0,0,0,0,0,0,0,0,0,-1.4703,-1.4705,-1.4803,-1.4803,-1.4804,-1.4829,-1.483,-1.483,-1.4769,-1.4766,-1.4764,-1.4761,-1.4791,-1.4795,-1.4798,0,0,0,0,0,0,0,0,0,0,0,0,0,-1.474,-1.4706,-1.4803,-1.4776,-1.4774,-1.4829,-1.483,-1.483,-1.4769,-1.4766,-1.4763,-1.476,-1.479,-1.4794,-1.4798,-1.4882,0,0,-1.481,-1.4812,0,0,0,0,0,0,0,0,-1.4738,-1.4744,-1.478,-1.4778,-1.4776,-1.4792,-1.4805,-1.4847,-1.477,-1.4771,-1.4762,-1.4759,-1.4795,-1.4798,-1.481,-1.4883,-1.4884,-1.4811,-1.4813,-1.4815,-1.4816,0,0,0,0,0,0,0,-1.4735,-1.4742,-1.4813,-1.478,-1.4778,-1.4764,-1.4766,-1.4813,-1.4799,-1.4771,-1.4766,-1.477,-1.4793,-1.4806,-1.481,-1.4885,-1.481,-1.4814,-1.4816,-1.4818,-1.5029,-1.5032,0,0,0,0,0,0,-1.4736,-1.474,-1.4813,-1.4814,-1.4749,-1.4768,-1.477,-1.479,-1.4799,-1.4797,-1.4773,-1.4767,-1.4801,-1.4806,-1.4811,-1.491,-1.4815,-1.4818,-1.4821,-1.5026,-1.503,-1.5033,0,0,0,0,0,0,-1.4734,-1.4743,-1.4812,-1.4776,-1.4784,-1.4773,-1.4796,-1.4792,-1.4805,-1.48,-1.4798,-1.4788,-1.4799,-1.4805,-1.4865,-1.4911,-1.482,-1.4824,-1.5022,-1.5027,-1.5032,-1.5109,0,0,0,0,0,0,-1.4731,-1.4742,-1.4773,-1.4777,-1.4786,-1.4864,-1.4798,-1.4795,-1.4812,-1.4805,-1.4814,-1.4813,-1.4797,-1.4859,-1.4869,-1.4914,-1.4827,-1.5018,-1.5024,-1.503,-1.5103,-1.5116,-1.5128,0,0,0,0,0,-1.4728,-1.4795,-1.4775,-1.4784,-1.4824,-1.4867,-1.4872,-1.4852,-1.4815,-1.4847,-1.4844,-1.4812,-1.4904,-1.4866,-1.4876,-1.4924,-1.5015,-1.5023,-1.503,-1.5097,-1.5114,-1.5128,0,0,0,0,0,0,-1.4798,-1.4795,-1.4773,-1.4843,-1.4856,-1.4856,-1.4896,-1.487,-1.4894,-1.4887,-1.4861,-1.4864,-1.4928,-1.4931,-1.4889,-1.5005,-1.4953,-1.4963,-1.5001,-1.5017,-1.5029,-1.5028,-1.483,0,0,0,0,0,-1.4821,-1.4855,-1.4851,-1.4913,-1.492,-1.4907,-1.4925,-1.4908,-1.4921,-1.4926,-1.4927,-1.4941,-1.4973,-1.4995,-1.5024,-1.5102,-1.5104,-1.514,-1.5153,-1.5163,-1.5173,-1.5216,-1.5232,-1.5057,-1.5057,-1.5057,0,0,-1.487,-1.4872,-1.4895,-1.4927,-1.4935,-1.4972,-1.4912,-1.4953,-1.4981,-1.4932,-1.4989,-1.499,-1.5004,-1.5074,-1.5105,-1.5079,-1.5221,-1.5172,-1.5181,-1.5185,-1.5225,-1.5242,-1.5256,-1.5062,-1.5061,-1.5061,0,0,-1.4978,-1.4983,-1.5035,-1.5044,-1.5057,-1.5047,-1.506,-1.5065,-1.5064,-1.5119,-1.5084,-1.5117,-1.5172,-1.5184,-1.5198,-1.5311,-1.5283,-1.5321,-1.5387,-1.543,-1.5444,-1.5456,-1.5498,-1.5513,-1.5329,-1.533,-1.533,0,-1.5038,-1.5091,-1.5066,-1.511,-1.5126,-1.5082,-1.5136,-1.5146,-1.5168,-1.5181,-1.515,-1.5219,-1.5226,-1.5298,-1.5326,-1.5337,-1.5353,-1.532,-1.5443,-1.5455,-1.5466,-1.5506,-1.5522,-1.5334,-1.5334,-1.5333,-1.5333,0,-1.5164,-1.5202,-1.5243,-1.5265,-1.5285,-1.5334,-1.5317,-1.5341,-1.5322,-1.5317,-1.5375,-1.5381,-1.5411,-1.5426,-1.5409,-1.5497,-1.548,-1.5447,-1.5395,-1.5488,-1.5525,-1.554,-1.5341,-1.5339,-1.5338,-1.5337,0,0,-1.5318,-1.5325,-1.5341,-1.5351,-1.5361,-1.539,-1.5437,-1.5466,-1.5487,-1.5503,-1.5544,-1.5591,-1.5561,-1.5576,-1.556,-1.5597,-1.5688,-1.5559,-1.5559,-1.5584,-1.5787,-1.5814,-1.5831,-1.5669,-1.5672,-1.5674,-1.5787,0,-1.5427,-1.5507,-1.5487,-1.5567,-1.5603,-1.5562,-1.5603,-1.5615,-1.5611,-1.5641,-1.5637,-1.5672,-1.5628,-1.5637,-1.5672,-1.567,-1.5729,-1.5661,-1.5708,-1.571,-1.5707,-1.585,-1.5878,-1.5984,-1.5801,-1.5803,-1.5805,0,-1.5564,-1.5585,-1.567,-1.5675,-1.5689,-1.5727,-1.5752,-1.578,-1.5793,-1.5787,-1.5805,-1.5781,-1.5829,-1.5775,-1.5842,-1.5796,-1.5814,-1.5816,-1.5819,-1.5824,-1.5765,-1.5861,-1.6018,-1.6035,-1.5827,-1.5825,-1.5824,0,-1.567,-1.572,-1.5777,-1.5786,-1.5793,-1.5821,-1.5825,-1.5835,-1.5854,-1.5875,-1.5888,-1.5915,-1.5931,-1.5953,-1.5938,-1.59,-1.6008,-1.5952,-1.6007,-1.6007,-1.6033,-1.6032,-1.6196,-1.6041,-1.6041,-1.6041,-1.6041,0,-1.5795,-1.5848,-1.5825,-1.586,-1.5919,-1.5895,-1.5955,-1.5954,-1.5963,-1.5999,-1.5965,-1.5999,-1.5976,-1.6009,-1.5997,-1.6055,-1.6062,-1.606,-1.6057,-1.6064,-1.6065,-1.6077,-1.607,-1.6045,-1.6044,-1.6043,-1.6043,0,-1.5924,-1.591,-1.597,-1.5971,-1.5973,-1.6017,-1.6019,-1.6052,-1.6045,-1.6091,-1.61,-1.609,-1.6127,-1.6113,-1.6153,-1.6145,-1.622,-1.6206,-1.6216,-1.6213,-1.6268,-1.6264,-1.6448,-1.6472,-1.63,-1.6302,-1.6303,0,-1.6005,-1.6045,-1.6051,-1.6072,-1.6079,-1.6113,-1.6132,-1.6109,-1.6131,-1.6148,-1.618,-1.6214,-1.624,-1.6301,-1.6298,-1.6328,-1.6315,-1.6378,-1.632,-1.6327,-1.6319,-1.6317,-1.6322,-1.639,-1.6392,-1.6394,-1.6395,0,-1.6151,-1.6142,-1.617,-1.6196,-1.622,-1.6239,-1.6256,-1.6275,-1.6254,-1.628,-1.6316,-1.6336,-1.6376,-1.6411,-1.6438,-1.6444,-1.6417,-1.6413,-1.6427,-1.6437,-1.6441,-1.6441,-1.6249,-1.6409,-1.6408,-1.6407,-1.6406,-1.6405,-1.626,-1.6294,-1.6304,-1.6337,-1.6347,-1.6363,-1.6395,-1.6392,-1.6422,-1.6452,-1.6437,-1.6481,-1.6493,-1.6526,-1.6536,-1.657,-1.6546,-1.6567,-1.6572,-1.6578,-1.6587,-1.6434,-1.6575,-1.6574,-1.6574,-1.6574,-1.6573,0,-1.6406,-1.641,-1.644,-1.6464,-1.6491,-1.6461,-1.6478,-1.6502,-1.6541,-1.6554,-1.658,-1.6623,-1.6656,-1.6655,-1.6687,-1.6714,-1.6703,-1.6724,-1.6722,-1.6724,-1.6605,-1.659,-1.6732,-1.6732,-1.6732,-1.6732,-1.6732,-1.6732,-1.6485,-1.6542,-1.6535,-1.6597,-1.66,-1.6642,-1.6655,-1.667,-1.6681,-1.673,-1.6757,-1.6756,-1.6764,-1.6796,-1.6826,-1.6824,-1.6839,-1.6864,-1.6859,-1.6748,-1.6733,-1.6718,-1.6704,-1.6867,-1.6867,-1.6975,-1.6976,-1.6977]},{"header":{"parameterUnit":"m.s-1","parameterCategory":1,"la1":30.2991,"la2":30.254,"lo1":-89.0895,"lo2":-89.0444,"dy":0.0017,"dx":0.0017,"nx":28,"ny":28,"refTime":"2024-02-06T09:00:00:Z","depth":0,"parameterNumber":3,"parameterNumberName":"V-component_of_WINDS"},"data":[0,0,0,0,0,0,0,0,0,0,0,0,0,0,0,0,0,0,0,0,0,0,0,0,0,0,0,0,0,0,0,0,0,0,0,0,0,0,0,0,0,0,0,0,0,0,0,0,0,0,0,0,0,0,0,0,0,0,-2.7481,-2.7481,0,-2.7507,-2.7508,-2.7508,-2.7475,-2.7474,-2.7473,-2.7472,-2.7496,-2.7498,-2.75,0,0,0,0,0,0,0,0,0,0,0,0,0,-2.74,-2.7401,-2.7481,-2.7481,-2.7482,-2.7507,-2.7508,-2.7508,-2.7476,-2.7474,-2.7473,-2.7471,-2.7496,-2.7498,-2.75,0,0,0,0,0,0,0,0,0,0,0,0,0,-2.7431,-2.7402,-2.7481,-2.7469,-2.7468,-2.7507,-2.7508,-2.7508,-2.7476,-2.7474,-2.7472,-2.7471,-2.7495,-2.7497,-2.75,-2.7552,0,0,-2.7508,-2.7509,0,0,0,0,0,0,0,0,-2.743,-2.7434,-2.747,-2.747,-2.7469,-2.7486,-2.7488,-2.7523,-2.7476,-2.7473,-2.7472,-2.747,-2.7494,-2.7497,-2.7505,-2.7553,-2.7554,-2.7508,-2.751,-2.7511,-2.7512,0,0,0,0,0,0,0,-2.7428,-2.7433,-2.7491,-2.7471,-2.747,-2.7461,-2.7463,-2.7494,-2.7493,-2.7473,-2.7471,-2.7474,-2.7493,-2.7503,-2.7506,-2.7554,-2.7508,-2.7511,-2.7512,-2.7513,-2.7645,-2.7647,0,0,0,0,0,0,-2.7427,-2.7432,-2.749,-2.7492,-2.7444,-2.7464,-2.7467,-2.7482,-2.7493,-2.7492,-2.7476,-2.7473,-2.7499,-2.7503,-2.7507,-2.7568,-2.7511,-2.7513,-2.7515,-2.7643,-2.7646,-2.7648,0,0,0,0,0,0,-2.7426,-2.7433,-2.7489,-2.7461,-2.7468,-2.7467,-2.7485,-2.7484,-2.7493,-2.7495,-2.7494,-2.7486,-2.7498,-2.7503,-2.7541,-2.7568,-2.7515,-2.7517,-2.7641,-2.7644,-2.7647,-2.7691,0,0,0,0,0,0,-2.7423,-2.7432,-2.7453,-2.7462,-2.7469,-2.7524,-2.7487,-2.7486,-2.7498,-2.7495,-2.7504,-2.7504,-2.7497,-2.7537,-2.7544,-2.7571,-2.7519,-2.7639,-2.7642,-2.7646,-2.7687,-2.7695,-2.7701,0,0,0,0,0,-2.7421,-2.7464,-2.7454,-2.7461,-2.7495,-2.7526,-2.753,-2.7522,-2.7501,-2.7521,-2.7522,-2.7504,-2.7564,-2.7541,-2.7548,-2.7577,-2.7637,-2.7641,-2.7646,-2.7683,-2.7693,-2.7701,0,0,0,0,0,0,-2.7457,-2.7465,-2.7454,-2.7501,-2.7513,-2.752,-2.7546,-2.7532,-2.755,-2.7546,-2.7534,-2.7536,-2.7577,-2.758,-2.7555,-2.7627,-2.7597,-2.7603,-2.7623,-2.7632,-2.764,-2.7638,-2.7521,0,0,0,0,0,-2.747,-2.7496,-2.7501,-2.7542,-2.7549,-2.7546,-2.7559,-2.7552,-2.7564,-2.7568,-2.7572,-2.7583,-2.7604,-2.7618,-2.7638,-2.7687,-2.7688,-2.771,-2.7717,-2.7723,-2.7728,-2.7754,-2.7763,-2.7662,-2.7662,-2.7662,0,0,-2.7498,-2.7506,-2.7522,-2.755,-2.7558,-2.7584,-2.7551,-2.7579,-2.7598,-2.7572,-2.7609,-2.7612,-2.7623,-2.7667,-2.7686,-2.7671,-2.7757,-2.7729,-2.7734,-2.7735,-2.7759,-2.7769,-2.7777,-2.7665,-2.7665,-2.7664,0,0,-2.7563,-2.7571,-2.7607,-2.7616,-2.7629,-2.7627,-2.7636,-2.7645,-2.7646,-2.7683,-2.7664,-2.7685,-2.7723,-2.7732,-2.7741,-2.7809,-2.7793,-2.7815,-2.7853,-2.7878,-2.7886,-2.7893,-2.7917,-2.7926,-2.782,-2.7821,-2.7821,0,-2.7596,-2.7635,-2.7626,-2.7656,-2.7668,-2.7647,-2.7682,-2.7691,-2.771,-2.7718,-2.7701,-2.7748,-2.7754,-2.7799,-2.7816,-2.7824,-2.7833,-2.7814,-2.7886,-2.7893,-2.7899,-2.7922,-2.7931,-2.7823,-2.7823,-2.7823,-2.7822,0,-2.7674,-2.7701,-2.7728,-2.7748,-2.7763,-2.7795,-2.7791,-2.7807,-2.7798,-2.7798,-2.7835,-2.7842,-2.7862,-2.7872,-2.7864,-2.7916,-2.7906,-2.7888,-2.7857,-2.7912,-2.7933,-2.7941,-2.7827,-2.7826,-2.7825,-2.7825,0,0,-2.7762,-2.7777,-2.7787,-2.7795,-2.7808,-2.7829,-2.786,-2.7881,-2.7895,-2.7908,-2.7933,-2.7965,-2.7948,-2.7959,-2.7951,-2.7973,-2.8026,-2.7952,-2.7952,-2.7965,-2.8083,-2.8097,-2.8107,-2.8016,-2.8017,-2.8019,-2.8082,0,-2.7826,-2.7881,-2.7874,-2.7926,-2.7951,-2.7931,-2.7958,-2.7968,-2.7969,-2.7989,-2.7988,-2.8011,-2.7987,-2.7994,-2.8015,-2.8015,-2.8049,-2.801,-2.8038,-2.8039,-2.8036,-2.8118,-2.8133,-2.8192,-2.809,-2.8092,-2.8093,0,-2.7908,-2.7926,-2.7981,-2.799,-2.8,-2.8024,-2.8043,-2.8063,-2.8074,-2.8072,-2.8085,-2.8073,-2.8103,-2.8072,-2.8113,-2.8087,-2.8097,-2.8099,-2.8101,-2.8103,-2.8069,-2.8122,-2.8211,-2.822,-2.8106,-2.8105,-2.8104,0,-2.7966,-2.8003,-2.8041,-2.8049,-2.8061,-2.8078,-2.8084,-2.8093,-2.8106,-2.8122,-2.813,-2.8149,-2.8159,-2.8174,-2.8167,-2.8146,-2.8209,-2.8178,-2.8208,-2.8208,-2.8222,-2.8221,-2.8314,-2.823,-2.823,-2.823,-2.8229,0,-2.8038,-2.8072,-2.8067,-2.809,-2.8128,-2.8119,-2.8156,-2.8159,-2.8167,-2.819,-2.8174,-2.8195,-2.8185,-2.8205,-2.82,-2.8235,-2.8239,-2.8238,-2.8237,-2.824,-2.824,-2.8246,-2.8242,-2.8232,-2.8231,-2.8231,-2.823,0,-2.8109,-2.8107,-2.8147,-2.8155,-2.8158,-2.8185,-2.8191,-2.8212,-2.8212,-2.824,-2.8247,-2.8245,-2.8268,-2.8263,-2.8288,-2.8284,-2.8328,-2.8321,-2.8324,-2.8322,-2.8353,-2.835,-2.8453,-2.8466,-2.8373,-2.8374,-2.8375,0,-2.8155,-2.8181,-2.8193,-2.8207,-2.8214,-2.8237,-2.8251,-2.8243,-2.8257,-2.8272,-2.8291,-2.8313,-2.833,-2.8368,-2.8368,-2.8387,-2.838,-2.8415,-2.8383,-2.8385,-2.838,-2.8379,-2.8381,-2.8421,-2.8422,-2.8423,-2.8424,0,-2.8237,-2.8235,-2.8255,-2.8276,-2.8292,-2.8307,-2.8321,-2.8333,-2.8326,-2.8343,-2.8367,-2.838,-2.8406,-2.8428,-2.8445,-2.845,-2.8436,-2.8434,-2.8442,-2.8445,-2.8446,-2.8446,-2.8341,-2.8432,-2.8431,-2.843,-2.843,-2.843,-2.8297,-2.8319,-2.833,-2.8353,-2.8363,-2.8376,-2.8396,-2.8398,-2.8418,-2.8439,-2.8433,-2.846,-2.847,-2.8492,-2.8499,-2.8519,-2.8506,-2.8518,-2.8521,-2.8523,-2.8527,-2.8443,-2.8523,-2.8522,-2.8522,-2.8522,-2.8522,0,-2.8377,-2.8384,-2.8405,-2.8425,-2.8443,-2.8429,-2.8443,-2.8459,-2.8483,-2.8494,-2.8511,-2.8539,-2.8559,-2.8562,-2.8581,-2.8597,-2.8591,-2.8602,-2.8601,-2.8602,-2.8538,-2.8529,-2.8607,-2.8607,-2.8607,-2.8607,-2.8607,-2.8607,-2.8421,-2.8458,-2.8457,-2.8498,-2.8504,-2.8531,-2.854,-2.8551,-2.856,-2.8592,-2.8609,-2.8611,-2.8618,-2.8638,-2.8656,-2.8656,-2.8664,-2.8678,-2.8675,-2.8615,-2.8607,-2.8598,-2.859,-2.8679,-2.8679,-2.8737,-2.8738,-2.8738]}]]